Weather History for KANE - July, 2013

Change the Weather History Date:

Tuesday, July 2, 2013

  Actual Average Record
Temperature  
Mean Temperature 70 °F -  
Max Temperature 82 °F 77 °F 98 °F (2012)
Min Temperature 57 °F 60 °F 51 °F (2005)
Cooling Degree Days 4    
Growing Degree Days 20 (Base 50)    
Moisture  
Dew Point 56 °F    
Average Humidity 68    
Maximum Humidity 88    
Minimum Humidity 35    
Precipitation  
Precipitation 0.00 in - - ()
Sea Level Pressure  
Sea Level Pressure 30.13 in    
Wind  
Wind Speed 1 mph (NNE)    
Max Wind Speed 10 mph    
Max Gust Speed -    
Visibility 10 miles    
Events      
Averages and records for this station are not official NWS values.
T = Trace of Precipitation, MM = Missing Value Source: NWS Daily Summary

Daily Weather History Graph

Daily Weather History Graph

Search for Another Location

Airport or City:

Trip Planner

Search our weather history database for the weather conditions in past years. The results will help you decide how hot, cold, wet, or windy it might be!

Date:

Astronomy

Jul. 02, 2013 Rise Set
Actual Time 5:30 AM CDT 9:03 PM CDT
Civil Twilight 4:52 AM CDT 9:40 PM CDT
Nautical Twilight 4:03 AM CDT 10:29 PM CDT
Astronomical Twilight 2:58 AM CDT 11:34 PM CDT
Moon 1:41 AM CDT (7/2) 4:11 PM CDT (7/2)
Length of Visible Light 16h 47m
Length of Day
15h 33m
Waning Crescent, 26% of the Moon is Illuminated
Jul 2
Waning Crescent
Jul 8
New
Jul 15
First Quarter
Jul 22
Full
Jul 29
Last Quarter

Hourly Weather History & Observations

Time (CDT) Temp. Heat Index Dew Point Humidity Pressure Visibility Wind Dir Wind Speed Gust Speed Precip Events Conditions
12:14 AM 64.4 °F - 57.2 °F 77% 30.16 in 10.0 mi Calm Calm - N/A   Clear
12:34 AM 64.4 °F - 57.2 °F 77% 30.16 in 10.0 mi Calm Calm - N/A   Clear
12:54 AM 62.6 °F - 57.2 °F 82% 30.16 in 10.0 mi Calm Calm - N/A   Clear
1:14 AM 64.4 °F - 57.2 °F 77% 30.16 in 10.0 mi Calm Calm - N/A   Clear
1:34 AM 64.4 °F - 57.2 °F 77% 30.16 in 10.0 mi Calm Calm - N/A   Clear
1:54 AM 64.4 °F - 57.2 °F 77% 30.16 in 10.0 mi Calm Calm - N/A   Clear
2:14 AM 62.6 °F - 55.4 °F 77% 30.17 in 10.0 mi Calm Calm - N/A   Clear
2:34 AM 62.6 °F - 55.4 °F 77% 30.16 in 10.0 mi Calm Calm - N/A   Clear
2:54 AM 60.8 °F - 55.4 °F 82% 30.16 in 10.0 mi Calm Calm - N/A   Clear
3:14 AM 60.8 °F - 55.4 °F 82% 30.17 in 10.0 mi Calm Calm - N/A   Clear
3:34 AM 60.8 °F - 55.4 °F 82% 30.17 in 10.0 mi North 3.5 mph - N/A   Clear
3:54 AM 60.8 °F - 55.4 °F 82% 30.16 in 10.0 mi Calm Calm - N/A   Clear
4:14 AM 59.0 °F - 53.6 °F 82% 30.16 in 10.0 mi Calm Calm - N/A   Clear
4:34 AM 59.0 °F - 55.4 °F 88% 30.16 in 10.0 mi Calm Calm - N/A   Clear
4:54 AM 57.2 °F - 53.6 °F 88% 30.16 in 10.0 mi NNW 3.5 mph - N/A   Clear
5:14 AM 57.2 °F - 53.6 °F 88% 30.17 in 10.0 mi NNW 4.6 mph - N/A   Clear
5:34 AM 57.2 °F - 53.6 °F 88% 30.17 in 10.0 mi Calm Calm - N/A   Scattered Clouds
5:54 AM 59.0 °F - 53.6 °F 82% 30.17 in 10.0 mi Calm Calm - N/A   Scattered Clouds
6:14 AM 57.2 °F - 53.6 °F 88% 30.17 in 10.0 mi Calm Calm - N/A   Scattered Clouds
6:34 AM 59.0 °F - 53.6 °F 82% 30.17 in 10.0 mi Calm Calm - N/A   Scattered Clouds
6:45 AM 59.0 °F - 53.6 °F 82% 30.17 in 10.0 mi NNE 3.5 mph - N/A   Scattered Clouds
6:54 AM 60.8 °F - 53.6 °F 77% 30.17 in 10.0 mi NNE 3.5 mph - N/A   Clear
7:45 AM 62.6 °F - 53.6 °F 72% 30.17 in 10.0 mi Calm Calm - N/A   Scattered Clouds
9:45 AM 71.6 °F - 57.2 °F 60% 30.16 in 10.0 mi Calm Calm - N/A   Clear
10:45 AM 75.2 °F - 53.6 °F 47% 30.15 in 10.0 mi North 6.9 mph - N/A   Clear
11:45 AM 77.0 °F - 50.0 °F 39% 30.15 in 10.0 mi North 6.9 mph - N/A   Clear
12:45 PM 78.8 °F - 50.0 °F 36% 30.14 in 10.0 mi NE 8.1 mph - N/A   Clear
1:55 PM 80.6 °F 80.3 °F 53.6 °F 39% 30.13 in 10.0 mi ENE 10.4 mph - N/A   Clear
2:45 PM 80.6 °F 80.3 °F 53.6 °F 39% 30.12 in 10.0 mi NNE 6.9 mph - N/A   Partly Cloudy
3:45 PM 82.4 °F - 51.8 °F 35% 30.10 in 10.0 mi NE 6.9 mph - N/A   Scattered Clouds
4:45 PM 82.4 °F 81.4 °F 53.6 °F 37% 30.09 in 10.0 mi NNE 5.8 mph - N/A   Scattered Clouds
5:45 PM 80.6 °F 80.5 °F 55.4 °F 42% 30.08 in 10.0 mi NE 5.8 mph - N/A   Scattered Clouds
6:45 PM 80.6 °F 80.5 °F 55.4 °F 42% 30.08 in 10.0 mi NE 5.8 mph - N/A   Scattered Clouds
7:45 PM 78.8 °F - 55.4 °F 44% 30.07 in 10.0 mi NE 5.8 mph - N/A   Scattered Clouds
8:55 PM 75.2 °F - 55.4 °F 50% 30.07 in 10.0 mi Calm Calm - N/A   Scattered Clouds
9:14 PM 75.2 °F - 57.2 °F 53% 30.07 in 10.0 mi Calm Calm - N/A   Mostly Cloudy
9:34 PM 73.4 °F - 59.0 °F 61% 30.08 in 10.0 mi Calm Calm - N/A   Scattered Clouds
9:45 PM 73.4 °F - 60.8 °F 65% 30.08 in 10.0 mi Calm Calm - N/A   Scattered Clouds
9:54 PM 71.6 °F - 59.0 °F 64% 30.08 in 10.0 mi Calm Calm - N/A   Clear
10:14 PM 69.8 °F - 60.8 °F 73% 30.08 in 10.0 mi Calm Calm - N/A   Clear
10:34 PM 66.2 °F - 59.0 °F 78% 30.08 in 10.0 mi Calm Calm - N/A   Clear
10:54 PM 66.2 °F - 57.2 °F 73% 30.08 in 10.0 mi Calm Calm - N/A   Clear
11:14 PM 66.2 °F - 57.2 °F 73% 30.08 in 10.0 mi Calm Calm - N/A   Clear
11:34 PM 64.4 °F - 59.0 °F 83% 30.09 in 10.0 mi Calm Calm - N/A   Clear
11:54 PM 64.4 °F - 59.0 °F 83% 30.08 in 10.0 mi Calm Calm - N/A   Clear